Regional Weather Roundup
Issued by NWS

Home | Current Version | Previous Version | Text Only | Print | Product List | Glossary Off
Versions: 1 2 3 4 5 6 7 8 9 10 11 12 13 14 15 16 17 18 19 20 21 22 23 24 25 26 27 28 29 30 31 32 33 34 35 36 37 38 39 40 41 42 43 44 45 46 47 48 49 50

000
ASUS44 KMEG 291110
RWRTN
TENNESSEE HOURLY STATE WEATHER ROUNDUP
NATIONAL WEATHER SERVICE MEMPHIS TN
600 AM CDT TUE JUL 29 2014

TNZ002-004-019-021-049-052-054-088>092-291200-
WEST TENNESSEE

CITY           SKY/WX    TMP DP  RH WIND       PRES   REMARKS
MEMPHIS INTL   PTCLDY    70  59  68 N9        30.09R
NWS MEMPHIS      N/A     68 N/A N/A MISG        N/A
JACKSON        CLEAR     62  57  83 N5        30.09R
DYERSBURG      CLEAR     63  50  63 N3        30.12R
UNION CITY     CLEAR     57  55  94 CALM      30.10R
PARIS          CLEAR     53  52  97 CALM      30.10R
LEXINGTON      CLEAR     57  55  94 N6        30.07S
SAVANNAH       CLEAR     60  60 100 CALM      30.07R
$$

TNZ008-025-027-028-033-062-065-066-291200-
NORTH MIDDLE TENNESSEE

CITY           SKY/WX    TMP DP  RH WIND       PRES   REMARKS
NASHVILLE      PTCLDY    61  52  72 N5        30.06R
DICKSON        CLEAR     55  52  88 CALM      30.08R
CLARKSVILLE    CLEAR     56  51  84 NW5       30.08R
LEBANON        CLEAR     57  53  86 CALM      30.04R
SMYRNA         CLEAR     60  53  77 N6        30.06R
MURFREESBORO   CLEAR     61  56  83 NW3       30.05R
COOKEVILLE     CLEAR     55  55 100 CALM      30.03S
LIVINGSTON       N/A     58  56  93 CALM      30.04S
CROSSVILLE     MOCLDY    59  56  89 NW3       30.05R
$$

TNZ061-075-076-078-094-096-097-291200-
SOUTH MIDDLE TENNESSEE

CITY           SKY/WX    TMP DP  RH WIND       PRES   REMARKS
LEWISBURG      CLEAR     61  56  83 VRB5      30.05R
FAYETTEVILLE   CLEAR     61  55  82 N6        30.04R
TULLAHOMA      CLEAR     57  55  94 N5        30.05S
WINCHESTER     CLEAR     57  57 100 CALM      30.04S
MCMINNVILLE      N/A     55  55 100 CALM      30.04S VSB 1
COLUMBIA       CLEAR     61  57  88 CALM      30.05R
SHELBYVILLE    CLEAR     59  57  94 N7        30.05S
$$

TNZ017-018-042-046-047-291200-
NORTHEAST TENNESSEE

CITY           SKY/WX    TMP DP  RH WIND       PRES   REMARKS
TRI CITIES     PTCLDY    56  53  90 CALM      30.02R FOG
ELIZABETHTON   CLOUDY    55  55 100 CALM        N/A
$$

TNZ012-013-036-069-073-074-291200-
CENTRAL EAST TENNESSEE

CITY           SKY/WX    TMP DP  RH WIND       PRES   REMARKS
KNOXVILLE      PTCLDY    63  59  87 N3        30.00R
OAK RIDGE      CLEAR     61  59  93 CALM      30.02R
GATLINBURG     MOSUNNY   59  57  94 CALM      30.01R
MORRISTOWN     SUNNY     57  57 100 CALM      30.02S
$$

TNZ083-085-099-291200-
SOUTHEAST TENNESSEE

CITY           SKY/WX    TMP DP  RH WIND       PRES   REMARKS
CHATTANOOGA    PTCLDY    65  58  78 NW8       30.01R
$$

SKY/WX REPORTED AS FAIR MEANS FEW OR NO CLOUDS BELOW
12 THOUSAND FEET.



USA.gov is the U.S. government's official web portal to all federal, state and local government web resources and services.